Terminal Aerodrome Forecast
Issued by NWS Cheyenne, WY

Home | Current Version | Previous Version | Text Only | Print | Product List | Glossary On
Versions: 1 2 3 4 5 6 7 8 9 10 11 12 13 14 15 16 17 18 19 20 21 22 23 24 25 26 27 28 29 30
000
FTUS45 KCYS 071139
TAFCYS
TAF
KCYS 071139Z 0712/0812 29018G27KT P6SM SCT150
     FM071600 33023G33KT P6SM SCT200
     FM080000 33017G26KT P6SM SCT200
     FM080800 30012KT P6SM SCT250=

USA.gov is the U.S. government's official web portal to all federal, state and local government web resources and services.